Showing default

OPS 5712 (P/L 160), 2826

Orbit data source: Space-Track

OPS 5712 (P/L 160), 2826 is a payload satellite owned by NRL (US) in LEO that was launched on Wed, 31 May 1967 UTC via a THOR SLV-2 AGENA D launch vehicle from the Air Force Western Test Range (AFWTR). Payloads include a variety of satellites, spacecraft, and rockets equipped with specific instruments for various scientific and technological missions. These include communications satellites like Starlink; space stations such as the ISS; scientific satellites like the Hubble; Earth observation satellites from companies like Planet Labs, Umbra, and HawkEye 360; GPS; miniature CubeSats for education and research; and military/defense satellites.

Loading next visibility...
OPS 5712 (P/L 160) details
Identifier
2826, 1967-053A
Orbit
LEO
Last TLE update17 hours ago
Origin
Flag of USNRL (US)
ManufacturerNRL
MissionOperational Defense Calibration
Bus & MotorNRL 14"?, Unknown motor
Mass5 kg wet, 5 kg dry
Launch date (UTC)
1967-05-31 (58 years ago)
Launch vehicle
THOR SLV-2 AGENA D
Launch site
Air Force Western Test Range (AFWTR)
Object type
Payload
Rocket body
Debris
Shape & HBRSphere, 0.51 m
Radar Cross Section0.204 m², Medium (>0.1 m² and < 1m²)

Expand to show TLE details & history

TLE from 17 hours ago
0 OPS 5712 (P/L 160)
1 02826U 67053A   24355.88451059  .00012868  00000-0  23674-2 0  9997
2 02826  69.9220 278.5334 0002040 243.3798 116.7135 14.65737644986253
Epoch: 2024-12-20T21:13Z
Definitive object data (Epoch: 2024-12-20T21:13:41.714Z)
Latitude-0.00003°
Longitude-129.83404°
Altitude677.738 km
Speed7.518 km/s
True Right ascension18h 34m 08s
True Declination0° 00' 00"
Sunlit
Object was in daylight at TLE epoch
Visualization TLE readout
Latitude41.68392°
Longitude-112.6063°
Altitude681.498 km
Speed7.519 km/s
Apparent Right ascension22h 10m 03s
Apparent Declination4° 18' 58"
Sunlit
Object is in daylight
Visualization observer readout
Local Sidereal Time12:50:40
Azimuth49.626° ENE
Elevation-32.429°
Doppler factor1
Orbital elements
Apogee altitude674.133 km
Perigee altitude671.256 km
Semi-major axis7,050.832 km
Eccentricity0.000204
Inclination69.922°
RAAN278.5334°
Arg. of periapsis243.3798°
True anomaly116.73438°
Mean anomaly116.7135°
Eccentric anomaly116.72394°
Mean motion3.66592 °/min
BSTAR0.0023674
Orbital period98.2 mins
Loading maneuver chart data...
Loading historical data...
Loading historical data...
Loading historical data...
Loading historical data...
Loading historical data...
Loading historical data...
Loading historical data...

OPS 5712 (P/L 160) Visibility forecast

Observer location: undefined°, undefined

Span
Click to sort rows by Start time (UTC) header in descending order
Start Az.
Max El. time (UTC)
Max El. Az.
Max El.
End time (UTC)
End Az.
9 mins2024-12-21 20:16:38.674Z193.901° SSW2024-12-21 20:20:38.674Z141.272° SSE42.545°2024-12-21 20:25:38.674Z29.48° NE
5 mins2024-12-22 04:54:38.674Z25.203° NE2024-12-22 04:56:38.674Z59.401° ENE19.97°2024-12-22 04:59:38.674Z101.271° ESE
7 mins2024-12-22 06:33:38.674Z316.474° NNW2024-12-22 06:36:38.674Z265.974° W33.666°2024-12-22 06:40:38.674Z185.03° SSW
|